Zurück zum Katalog

BREEZE-M R/B

AktivMEO
NORAD 41122·ROCKET BODY·🇷🇺 Russia

Gestartet Dec 13, 2015 von Baikonur Cosmodrome

Loading…

Nächste Überflüge (nächste 24 Stunden)

TLE

AktuellSource: Space-Track

Epoche: Sep 14, 2026, 10:02 UTC

1 41122U 15075B   26257.41854881 -.00000219  00000-0  00000-0 0  9992
2 41122   8.6733  57.6473 0340076 165.3027 195.8425  1.04641107 41132

Verfolge BREEZE-M R/B in Echtzeit mit AllMySat

Download on the App Store